一网星座-0661星 (ONEWEB-0661)

导读 | 星芒AI

ONEWEB-0661 是 OneWeb 卫星星座计划中的一颗低轨通信卫星,旨在为全球提供高速互联网服务。该卫星由阿丽亚娜集团制造,于2022年发射,运行在约1200公里高的近地轨道。作为 OneWeb 计划部署的数千颗卫星之一,它支持极地和偏远地区的宽带连接,增强全球数字包容性。该卫星采用模块化设计,具备高容量通信能力,助力实现 OneWeb 的全球覆盖目标。

基本信息
目录编号:
55821
目录名称:
ONEWEB-0661
国际标识:
2023-029AB
轨道中心:
EARTH
卫星名称:
一网星座-0661星
卫星全名:
一网星座-0661星 (ONEWEB-0661)
卫星状态:
在轨 (已飞行966 天)
发射日期:
2023-03-09 UTC
国别 :
英国 (GB)
星等 :
--
轨道信息
数据来源 国际轨道数据 AOE轨道数据
星历时间 2025-10-30T03:53:57+0800
12小时前
查看轨道信息
2025-10-26T10:00:00+0800
4天前
查看轨道信息
半长轴 7583.934km 7583.941km
偏心率 0.0001717 0.000167
轨道倾角 87.901° 87.903°
近地点辐角 106.118° 102.725°
升交点赤经 335.651° 336.396°
平近点角 254.014° 181.632°
近地点 1204.496km 1204.539km
远地点 1207.102km 1207.073km
周期 109.547分钟 109.547分钟
每日圈数 13.145012 13.144995
详细信息
平衡模式:
三轴稳定
覆盖范围:
全球
运营商:
一网卫星公司
运营商所在国:
英国
制造商(研发单位):
一网卫星公司
制造商所在国:
英国
使用方式:
暂无
卫星简介
OneWeb卫星网络由648颗重约125公斤的微型卫星组成,运行在1200公里的轨道上。 每颗卫星都能够提供至少每秒8千兆位的吞吐量,以使用其高吞吐量的Ku频段有效载荷为家庭和移动平台提供互联网接入。该卫星仍在工作。
2D轨道图
3D轨道图
轨道高度分析图
轨道倾角分析图
轨道综合分析图
查看轨道综合分析图